Time,TemperatureF,DewpointF,PressureIn,WindDirection,WindDirectionDegrees,WindSpeedMPH,WindSpeedGustMPH,Humidity,HourlyPrecipIn,Conditions,Clouds,dailyrainin,SoftwareType,DateUTC
2013-08-18 00:12:00,63.0,57.0,30.17,NE,39,6.0,9.0,81,0.00,,,0.00,,2013-08-18 05:12:00,
2013-08-18 00:22:00,63.0,57.0,30.16,NNE,32,6.0,9.0,81,0.00,,,0.00,,2013-08-18 05:22:00,
2013-08-18 00:42:00,63.0,57.0,30.17,NE,52,6.0,9.0,82,0.00,,,0.00,,2013-08-18 05:42:00,
2013-08-18 00:52:00,63.0,57.0,30.17,NE,46,5.0,8.0,82,0.00,,,0.00,,2013-08-18 05:52:00,
2013-08-18 01:11:00,62.0,57.0,30.17,ENE,67,3.0,6.0,84,0.00,,,0.00,,2013-08-18 06:11:00,
2013-08-18 01:21:00,61.0,57.0,30.17,NE,43,2.0,5.0,86,0.00,,,0.00,,2013-08-18 06:21:00,
2013-08-18 01:42:00,61.0,57.0,30.17,NNE,26,2.0,6.0,86,0.00,,,0.00,,2013-08-18 06:42:00,
2013-08-18 01:52:00,61.0,57.0,30.17,NNE,19,5.0,7.0,86,0.00,,,0.00,,2013-08-18 06:52:00,
2013-08-18 02:11:00,60.0,56.0,30.17,NNW,327,3.0,6.0,88,0.00,,,0.00,,2013-08-18 07:11:00,
2013-08-18 02:22:00,59.0,56.0,30.17,NNW,334,3.0,5.0,89,0.00,,,0.00,,2013-08-18 07:22:00,
2013-08-18 02:42:00,59.0,57.0,30.17,NW,320,1.0,8.0,92,0.00,,,0.00,,2013-08-18 07:42:00,
2013-08-18 02:52:00,59.0,57.0,30.16,North,6,5.0,7.0,92,0.00,,,0.00,,2013-08-18 07:52:00,
2013-08-18 03:12:00,59.0,57.0,30.16,NNE,16,2.0,7.0,92,0.00,,,0.00,,2013-08-18 08:12:00,
2013-08-18 03:21:00,59.0,57.0,30.16,NNW,329,2.0,6.0,92,0.00,,,0.00,,2013-08-18 08:21:00,
2013-08-18 03:52:00,58.0,56.0,30.16,NNW,332,3.0,6.0,94,0.00,,,0.00,,2013-08-18 08:52:00,
2013-08-18 04:11:00,58.0,56.0,30.16,NNW,333,6.0,7.0,94,0.00,,,0.00,,2013-08-18 09:11:00,
2013-08-18 04:21:00,58.0,57.0,30.16,NNW,328,4.0,7.0,95,0.00,,,0.00,,2013-08-18 09:21:00,
2013-08-18 04:43:00,58.0,56.0,30.16,NW,320,4.0,7.0,94,0.00,,,0.00,,2013-08-18 09:43:00,
2013-08-18 04:53:00,58.0,56.0,30.16,NNW,340,5.0,7.0,94,0.00,,,0.00,,2013-08-18 09:53:00,
2013-08-18 05:13:00,58.0,56.0,30.16,NNW,330,6.0,8.0,94,0.00,,,0.00,,2013-08-18 10:13:00,
2013-08-18 05:22:00,58.0,56.0,30.17,NW,325,6.0,8.0,94,0.00,,,0.00,,2013-08-18 10:22:00,
2013-08-18 05:42:00,58.0,57.0,30.17,NNW,327,6.0,8.0,95,0.00,,,0.00,,2013-08-18 10:42:00,
2013-08-18 05:52:00,57.0,56.0,30.17,NNW,327,6.0,8.0,95,0.00,,,0.00,,2013-08-18 10:52:00,
2013-08-18 06:11:00,58.0,56.0,30.18,NNW,337,5.0,9.0,94,0.00,,,0.00,,2013-08-18 11:11:00,
2013-08-18 06:22:00,58.0,56.0,30.18,NNW,340,6.0,8.0,94,0.00,,,0.00,,2013-08-18 11:22:00,
2013-08-18 06:42:00,58.0,57.0,30.19,NNW,340,6.0,8.0,95,0.00,,,0.00,,2013-08-18 11:42:00,
2013-08-18 06:52:00,57.0,56.0,30.18,NNW,334,6.0,8.0,95,0.00,,,0.00,,2013-08-18 11:52:00,
2013-08-18 07:11:00,58.0,57.0,30.19,NNW,328,7.0,9.0,95,0.00,,,0.00,,2013-08-18 12:11:00,
2013-08-18 07:21:00,58.0,57.0,30.19,NW,320,6.0,9.0,95,0.00,,,0.00,,2013-08-18 12:21:00,
2013-08-18 07:42:00,59.0,57.0,30.19,North,359,6.0,8.0,93,0.00,,,0.00,,2013-08-18 12:42:00,
2013-08-18 07:52:00,60.0,58.0,30.20,NNW,340,7.0,10.0,92,0.00,,,0.00,,2013-08-18 12:52:00,
2013-08-18 08:11:00,61.0,58.0,30.20,North,350,6.0,9.0,90,0.00,,,0.00,,2013-08-18 13:11:00,
2013-08-18 08:21:00,62.0,58.0,30.20,NNW,344,6.0,10.0,88,0.00,,,0.00,,2013-08-18 13:21:00,
2013-08-18 08:42:00,64.0,59.0,30.21,NNW,343,7.0,10.0,85,0.00,,,0.00,,2013-08-18 13:42:00,
2013-08-18 08:52:00,65.0,60.0,30.21,North,3,4.0,9.0,84,0.00,,,0.00,,2013-08-18 13:52:00,
2013-08-18 09:11:00,67.0,60.0,30.21,NNE,18,7.0,10.0,79,0.00,,,0.00,,2013-08-18 14:11:00,
2013-08-18 09:21:00,68.0,61.0,30.21,NNE,12,6.0,10.0,79,0.00,,,0.00,,2013-08-18 14:21:00,
2013-08-18 09:42:00,69.0,61.0,30.21,NNE,22,7.0,13.0,75,0.00,,,0.00,,2013-08-18 14:42:00,
2013-08-18 09:53:00,70.0,61.0,30.21,North,350,8.0,12.0,72,0.00,,,0.00,,2013-08-18 14:53:00,
2013-08-18 10:11:00,72.0,61.0,30.21,NE,43,8.0,13.0,68,0.00,,,0.00,,2013-08-18 15:11:00,
2013-08-18 10:22:00,72.0,60.0,30.21,North,357,9.0,13.0,66,0.00,,,0.00,,2013-08-18 15:22:00,
2013-08-18 10:43:00,74.0,60.0,30.21,NNW,346,7.0,13.0,62,0.00,,,0.00,,2013-08-18 15:43:00,
2013-08-18 10:53:00,74.0,60.0,30.21,NNW,344,10.0,16.0,61,0.00,,,0.00,,2013-08-18 15:53:00,
2013-08-18 11:13:00,75.0,60.0,30.21,NW,317,7.0,13.0,59,0.00,,,0.00,,2013-08-18 16:13:00,
2013-08-18 11:23:00,75.0,60.0,30.21,NNE,32,6.0,16.0,60,0.00,,,0.00,,2013-08-18 16:23:00,
2013-08-18 11:42:00,75.0,58.0,30.20,NE,39,9.0,14.0,56,0.00,,,0.00,,2013-08-18 16:42:00,
2013-08-18 11:52:00,76.0,60.0,30.20,NNE,27,10.0,15.0,57,0.00,,,0.00,,2013-08-18 16:52:00,
2013-08-18 12:13:00,77.0,57.0,30.19,NW,326,10.0,16.0,51,0.00,,,0.00,,2013-08-18 17:13:00,
2013-08-18 12:23:00,77.0,59.0,30.19,NE,34,7.0,13.0,53,0.00,,,0.00,,2013-08-18 17:23:00,
2013-08-18 12:42:00,78.0,59.0,30.19,NNE,29,5.0,16.0,52,0.00,,,0.00,,2013-08-18 17:42:00,
2013-08-18 12:52:00,77.0,59.0,30.18,ENE,63,4.0,13.0,53,0.00,,,0.00,,2013-08-18 17:52:00,
2013-08-18 13:12:00,79.0,58.0,30.18,ESE,104,7.0,10.0,49,0.00,,,0.00,,2013-08-18 18:12:00,
2013-08-18 13:21:00,79.0,59.0,30.18,North,10,10.0,15.0,50,0.00,,,0.00,,2013-08-18 18:21:00,
2013-08-18 13:42:00,79.0,58.0,30.17,NNE,30,7.0,14.0,49,0.00,,,0.00,,2013-08-18 18:42:00,
2013-08-18 13:52:00,79.0,58.0,30.17,WSW,258,3.0,10.0,49,0.00,,,0.00,,2013-08-18 18:52:00,
2013-08-18 14:11:00,79.0,60.0,30.16,NE,34,4.0,15.0,52,0.00,,,0.00,,2013-08-18 19:11:00,
2013-08-18 14:22:00,79.0,59.0,30.16,NE,37,6.0,12.0,51,0.00,,,0.00,,2013-08-18 19:22:00,
2013-08-18 14:42:00,80.0,60.0,30.15,NE,42,5.0,14.0,50,0.00,,,0.00,,2013-08-18 19:42:00,
2013-08-18 14:52:00,80.0,59.0,30.15,ENE,66,9.0,14.0,49,0.00,,,0.00,,2013-08-18 19:52:00,
2013-08-18 15:12:00,81.0,59.0,30.14,NE,42,3.0,13.0,48,0.00,,,0.00,,2013-08-18 20:12:00,
2013-08-18 15:22:00,81.0,59.0,30.14,East,98,2.0,14.0,47,0.00,,,0.00,,2013-08-18 20:22:00,
2013-08-18 15:52:00,82.0,59.0,30.14,NE,48,1.0,12.0,45,0.00,,,0.00,,2013-08-18 20:52:00,
2013-08-18 16:11:00,81.0,58.0,30.13,NE,35,3.0,10.0,45,0.00,,,0.00,,2013-08-18 21:11:00,
2013-08-18 16:21:00,82.0,58.0,30.13,NE,55,5.0,8.0,44,0.00,,,0.00,,2013-08-18 21:21:00,
2013-08-18 16:53:00,81.0,59.0,30.12,NW,322,1.0,8.0,47,0.00,,,0.00,,2013-08-18 21:53:00,
2013-08-18 17:13:00,81.0,58.0,30.12,SE,136,3.0,12.0,46,0.00,,,0.00,,2013-08-18 22:13:00,
2013-08-18 17:23:00,82.0,59.0,30.12,East,100,0.0,7.0,46,0.00,,,0.00,,2013-08-18 22:23:00,
2013-08-18 17:42:00,81.0,60.0,30.12,NE,55,5.0,6.0,49,0.00,,,0.00,,2013-08-18 22:42:00,
2013-08-18 17:52:00,81.0,59.0,30.11,SE,126,3.0,7.0,47,0.00,,,0.00,,2013-08-18 22:52:00,
2013-08-18 18:11:00,82.0,59.0,30.12,SSW,206,0.0,6.0,46,0.00,,,0.00,,2013-08-18 23:11:00,
2013-08-18 18:22:00,82.0,59.0,30.11,SSE,166,2.0,7.0,46,0.00,,,0.00,,2013-08-18 23:22:00,
2013-08-18 18:42:00,81.0,59.0,30.11,SE,133,0.0,5.0,47,0.00,,,0.00,,2013-08-18 23:42:00,
2013-08-18 18:52:00,81.0,58.0,30.11,SE,133,0.0,0.0,46,0.00,,,0.00,,2013-08-18 23:52:00,
2013-08-18 19:11:00,80.0,60.0,30.11,WNW,295,3.0,8.0,51,0.00,,,0.00,,2013-08-19 00:11:00,
2013-08-18 19:21:00,79.0,61.0,30.11,NW,316,4.0,7.0,54,0.00,,,0.00,,2013-08-19 00:21:00,
2013-08-18 19:42:00,79.0,61.0,30.11,WNW,296,3.0,7.0,55,0.00,,,0.00,,2013-08-19 00:42:00,
2013-08-18 19:52:00,78.0,62.0,30.12,WNW,290,5.0,6.0,57,0.00,,,0.00,,2013-08-19 00:52:00,
2013-08-18 20:11:00,76.0,62.0,30.11,West,268,3.0,5.0,62,0.00,,,0.00,,2013-08-19 01:11:00,
2013-08-18 20:22:00,76.0,63.0,30.11,West,271,5.0,6.0,64,0.00,,,0.00,,2013-08-19 01:22:00,
2013-08-18 20:42:00,75.0,63.0,30.12,West,281,3.0,6.0,66,0.00,,,0.00,,2013-08-19 01:42:00,
2013-08-18 20:52:00,74.0,62.0,30.11,WNW,298,4.0,6.0,67,0.00,,,0.00,,2013-08-19 01:52:00,
2013-08-18 21:11:00,73.0,62.0,30.12,WNW,295,2.0,6.0,68,0.00,,,0.00,,2013-08-19 02:11:00,
2013-08-18 21:21:00,73.0,62.0,30.12,WNW,293,3.0,6.0,68,0.00,,,0.00,,2013-08-19 02:21:00,
2013-08-18 21:42:00,72.0,61.0,30.12,WNW,294,3.0,7.0,69,0.00,,,0.00,,2013-08-19 02:42:00,
2013-08-18 21:52:00,72.0,61.0,30.13,WNW,295,0.0,5.0,69,0.00,,,0.00,,2013-08-19 02:52:00,
2013-08-18 22:11:00,71.0,62.0,30.13,WNW,295,0.0,0.0,72,0.00,,,0.00,,2013-08-19 03:11:00,
2013-08-18 22:21:00,70.0,61.0,30.13,WNW,295,0.0,0.0,73,0.00,,,0.00,,2013-08-19 03:21:00,
2013-08-18 22:42:00,69.0,61.0,30.13,WNW,295,0.0,0.0,76,0.00,,,0.00,,2013-08-19 03:42:00,
2013-08-18 22:53:00,68.0,61.0,30.13,WNW,295,0.0,0.0,78,0.00,,,0.00,,2013-08-19 03:53:00,
2013-08-18 23:12:00,65.0,60.0,30.13,WNW,295,0.0,0.0,84,0.00,,,0.00,,2013-08-19 04:12:00,
2013-08-18 23:23:00,65.0,61.0,30.13,WNW,295,0.0,0.0,86,0.00,,,0.00,,2013-08-19 04:23:00,
2013-08-18 23:42:00,65.0,61.0,30.13,WNW,295,0.0,0.0,88,0.00,,,0.00,,2013-08-19 04:42:00,
2013-08-18 23:53:00,65.0,61.0,30.13,WNW,295,0.0,0.0,88,0.00,,,0.00,,2013-08-19 04:53:00,